National Weather Service Raw Text Product

Displaying AFOS PIL: RWRIA Received: 2018-01-12 11:00 UTC


068 
ASUS43 KDMX 121106
RWRIA 

WEATHER ROUNDUP FOR IOWA
NATIONAL WEATHER SERVICE DES MOINES IA
500 AM CST FRI JAN 12 2018

NOTE: "FAIR" INDICATES FEW OR NO CLOUDS BELOW 12,000 FEET WITH NO
SIGNIFICANT WEATHER AND/OR OBSTRUCTIONS TO VISIBILITY.

* - THESE STATIONS ARE NOT NWS STATIONS...THUS NOT UNDER NWS
QUALITY CONTROL.  THEY ALSO DO NOT REPORT WEATHER SUCH 
AS PRECIPITATION OR FOG.  

IAZ001>003-012>014-020>022-031>034-043>046-121200-
   NORTHWEST IOWA
  
CITY           SKY/WX    TMP DP  RH WIND       PRES   REMARKS
CARROLL *      CLOUDY    -4 -11  71 N14       30.32R WCI -24          
CHEROKEE *     CLOUDY    -5 -11  75 NW8       30.38R WCI -21          
DENISON *      CLOUDY    -2  -9  71 N9        30.35R WCI -18          
LE MARS *      CLOUDY    -4 -11  71 N8        30.40R WCI -19          
ORANGE CITY *  CLOUDY    -6 -11  77 N9        30.36R WCI -22          
SHELDON *      CLOUDY    -8 -13  77 N12       30.35R WCI -27          
SIOUX CITY     CLOUDY    -3 -10  72 N16       30.40R WCI -24          
SPENCER        CLOUDY    -6 -14  68 N14       30.33R WCI -26          
STORM LAKE *   CLOUDY    -6 -13  71 N14       30.31R WCI -26          
$$
 
IAZ055>058-069>071-079>083-090>094-121200-
   SOUTHWEST IOWA
  
CITY           SKY/WX    TMP DP  RH WIND       PRES   REMARKS
ATLANTIC *     CLOUDY     0  -8  71 N10       30.32R WCI -17          
AUDUBON *      PTCLDY    -2  -9  71 N6        30.30R WCI -14          
CLARINDA *     CLOUDY     3  -4  72 N15G22    30.33R WCI -15          
COUNCIL BLFS * CLOUDY     0  -4  85 NW17G24   30.32S WCI -21          
CRESTON *      CLOUDY     0  -8  71 N15       30.27R WCI -20          
HARLAN  *      CLOUDY    -2  -9  71 N8        30.36R WCI -17          
LAMONI         CLOUDY     2  -7  66 N15G24    30.24S WCI -17          
RED OAK *      CLOUDY     1  -8  66 N13       30.33R WCI -16          
SHENANDOAH *   CLOUDY     1  -4  78 NW12      30.35R WCI -15          
$$
 
IAZ047>049-059>061-072>074-084-121200-
   CENTRAL IOWA
  
CITY           SKY/WX    TMP DP  RH WIND       PRES   REMARKS
AMES           CLOUDY    -3  -9  75 N15       30.30R WCI -23          
ANKENY *       CLOUDY    -2  -9  71 N15G23    30.31R WCI -22          
BOONE *        CLOUDY    -4 -11  71 N20       30.28R WCI -27          
CHARITON *     CLOUDY     0  -6  78 N14G21    30.25S WCI -19          
DES MOINES     CLOUDY     0  -9  65 N14       30.30R WCI -19          
GRINNELL*      CLOUDY    -1  -7  77 N20G26    30.24F WCI -23          
KNOXVILLE *    CLOUDY     0  -9  65 NW17G23   30.26S WCI -21          
MARSHALLTOWN   CLOUDY    -2  -9  72 N17G26    30.27R WCI -23          
NEWTON *       CLOUDY    -2  -8  78 N17G23    30.28R WCI -24          
PELLA *        CLOUDY     0  -7  74 NW13      30.29S WCI -18          
PERRY *          N/A     -2 -10  68 N14       30.33R WCI -21          
$$
 
IAZ004>006-015-016-023>025-035-036-121200-
   NORTH CENTRAL IOWA
  
CITY           SKY/WX    TMP DP  RH WIND       PRES   REMARKS
ALGONA *       CLOUDY    -8 N/A N/A N15G23    30.31R WCI -29          
CLARION *      CLOUDY    -6 -13  71 N15       30.31R WCI -27          
ESTHERVILLE    CLOUDY    -9 -14  78 N17       30.32R WCI -32          
FORT DODGE *   CLOUDY    -6 -13  71 N8        30.32R WCI -21          
MASON CITY     CLOUDY    -8 -14  74 N17       30.29S WCI -31          
FOREST CITY *    N/A     -6 -13  71 N15       30.30R WCI -27          
WEBSTER CITY * CLOUDY    -6 -15  65 N16G23    30.29R WCI -28          
IOWA FALLS *     N/A     -3 -10  74 N14       30.28R WCI -23          
$$

IAZ007>011-017>019-026>030-037>042-050>054-066-121200-
   NORTHEAST IOWA
  
CITY           SKY/WX    TMP DP  RH WIND       PRES   REMARKS
CEDAR RAPIDS     N/A      4  -2  76 N17       30.19R WCI -16          
CHARLES CITY * CLOUDY    -4  -9  77 N16       30.26R WCI -25          
CLINTON *        N/A     10   6  84 N20       30.15R WCI  -9          
DECORAH *      CLOUDY     1  -4  78 N18G25    30.20F WCI -19          
DUBUQUE        CLOUDY     8   2  76 N18       30.14R WCI -11          
MONTICELLO *   MOCLDY     9   1  72 N15G22    30.19R WCI  -8          
OELWEIN *        N/A      1   0  92 N13G21    30.22S WCI -16          
WATERLOO         N/A     -2  -8  76 N15       30.25F WCI -22          
$$
 
IAZ064-065-067-068-078-121200-
   EAST CENTRAL IOWA
  
CITY           SKY/WX    TMP DP  RH WIND       PRES   REMARKS
DAVENPORT        N/A     11   4  73 NW20      30.16R WCI  -7          
IOWA CITY        N/A      7  -2  66 NW16G24   30.23R WCI -11          
MT. PLEASANT * CLOUDY     5   0  78 NW16G24   30.20R WCI -14          
MUSCATINE *    MOCLDY    10   3  72 NW17G26   30.21R WCI  -7          
QUAD CITIES      N/A     12   5  73 NW16G25   30.15R WCI  -5          
$$
 
IAZ062-063-075>077-085>089-095>099-121200-
   SOUTHEAST IOWA
  
CITY           SKY/WX    TMP DP  RH WIND       PRES   REMARKS
BURLINGTON     CLOUDY     7   0  73 N18G26    30.16R WCI -12          
FAIRFIELD *    CLOUDY     3  -4  72 NW18G25   30.21S WCI -17          
FORT MADISON * CLOUDY     7   1  78 NW20G25   30.17S WCI -13          
KEOKUK *       CLOUDY     7   1  78 NW17G26   30.17S WCI -12          
OSKALOOSA *      N/A      1  -4  77 N20       30.25S WCI -20          
OTTUMWA        CLOUDY     2  -5  72 NW18      30.24R WCI -19          
WASHINGTON *   CLOUDY     3   0  85 NW20G25   30.23R WCI -18          
$$

ABBREVIATIONS USED IN REMARKS
   TC - TEMPERATURES IN CELSIUS
  WCI - WIND CHILL INDEX
   HX - HEAT INDEX
  VSB - VISIBILITY  
$$

  

963 
ASUS43 KDMX 121101
RWRIA 

WEATHER ROUNDUP FOR IOWA
NATIONAL WEATHER SERVICE DES MOINES IA
500 AM CST FRI JAN 12 2018

NOTE: "FAIR" INDICATES FEW OR NO CLOUDS BELOW 12,000 FEET WITH NO
SIGNIFICANT WEATHER AND/OR OBSTRUCTIONS TO VISIBILITY.

* - THESE STATIONS ARE NOT NWS STATIONS...THUS NOT UNDER NWS
QUALITY CONTROL.  THEY ALSO DO NOT REPORT WEATHER SUCH 
AS PRECIPITATION OR FOG.  

IAZ001>003-012>014-020>022-031>034-043>046-121200-
   NORTHWEST IOWA
  
CITY           SKY/WX    TMP DP  RH WIND       PRES   REMARKS
CARROLL *      CLOUDY    -4 -11  71 N14       30.32R WCI -24          
CHEROKEE *     CLOUDY    -5 -11  75 NW8       30.38R WCI -21          
DENISON *      CLOUDY    -2  -9  71 N9        30.35R WCI -18          
LE MARS *      CLOUDY    -4 -11  71 N8        30.40R WCI -19          
ORANGE CITY *  CLOUDY    -6 -11  77 N9        30.36R WCI -22          
SHELDON *      CLOUDY    -8 -13  77 N12       30.35R WCI -27          
SIOUX CITY     CLOUDY    -3 -10  72 N16       30.40R WCI -24          
SPENCER        CLOUDY    -6 -14  68 N14       30.33R WCI -26          
STORM LAKE *   CLOUDY    -6 -13  71 N14       30.31R WCI -26          
$$
 
IAZ055>058-069>071-079>083-090>094-121200-
   SOUTHWEST IOWA
  
CITY           SKY/WX    TMP DP  RH WIND       PRES   REMARKS
ATLANTIC *     CLOUDY     0  -8  71 N10       30.32R WCI -17          
AUDUBON *      PTCLDY    -2  -9  71 N6        30.30R WCI -14          
CLARINDA *     CLOUDY     3  -4  72 N15G22    30.33R WCI -15          
COUNCIL BLFS * CLOUDY     0  -4  85 NW17G24   30.32S WCI -21          
CRESTON *      CLOUDY     0  -8  71 N15       30.27R WCI -20          
HARLAN  *      CLOUDY    -2  -9  71 N8        30.36R WCI -17          
LAMONI         CLOUDY     2  -7  66 N15G24    30.24S WCI -17          
RED OAK *      CLOUDY     1  -8  66 N13       30.33R WCI -16          
SHENANDOAH *   CLOUDY     1  -4  78 NW12      30.35R WCI -15          
$$
 
IAZ047>049-059>061-072>074-084-121200-
   CENTRAL IOWA
  
CITY           SKY/WX    TMP DP  RH WIND       PRES   REMARKS
AMES           CLOUDY    -3  -9  75 N15       30.30R WCI -23          
ANKENY *       CLOUDY    -2  -9  71 N15G23    30.31R WCI -22          
BOONE *        CLOUDY    -4 -11  71 N20       30.28R WCI -27          
CHARITON *     CLOUDY     0  -6  78 N14G21    30.25S WCI -19          
DES MOINES     CLOUDY     0  -9  65 N14       30.30R WCI -19          
GRINNELL*      CLOUDY    -1  -7  77 N20G26    30.24F WCI -23          
KNOXVILLE *    CLOUDY     0  -9  65 NW17G23   30.26S WCI -21          
MARSHALLTOWN   CLOUDY    -2  -9  72 N17G26    30.27R WCI -23          
NEWTON *       CLOUDY    -2  -8  78 N17G23    30.28R WCI -24          
PELLA *        CLOUDY     0  -7  74 NW13      30.29S WCI -18          
$$
 
IAZ004>006-015-016-023>025-035-036-121200-
   NORTH CENTRAL IOWA
  
CITY           SKY/WX    TMP DP  RH WIND       PRES   REMARKS
ALGONA *       CLOUDY    -8 N/A N/A N15G23    30.31R WCI -29          
CLARION *      CLOUDY    -6 -13  71 N15       30.31R WCI -27          
ESTHERVILLE    CLOUDY    -9 -14  78 N17       30.32R WCI -32          
FORT DODGE *   CLOUDY    -6 -13  71 N8        30.32R WCI -21          
MASON CITY     CLOUDY    -8 -14  74 N17       30.29S WCI -31          
FOREST CITY *    N/A     -6 -13  71 N15       30.30R WCI -27          
WEBSTER CITY * CLOUDY    -6 -15  65 N16G23    30.29R WCI -28          
IOWA FALLS *     N/A     -3 -10  74 N16G23    30.27S WCI -24          
$$

IAZ007>011-017>019-026>030-037>042-050>054-066-121200-
   NORTHEAST IOWA
  
CITY           SKY/WX    TMP DP  RH WIND       PRES   REMARKS
CEDAR RAPIDS     N/A      4  -2  76 N17       30.19R WCI -16          
CHARLES CITY * CLOUDY    -4  -9  77 N16       30.26R WCI -25          
CLINTON *        N/A     10   6  84 N20       30.15R WCI  -9          
DECORAH *      CLOUDY     1  -4  78 N18G25    30.20F WCI -19          
DUBUQUE        CLOUDY     8   2  76 N18       30.14R WCI -11          
MONTICELLO *   MOCLDY     9   1  72 N15G22    30.19R WCI  -8          
OELWEIN *        N/A      1   0  92 N13G21    30.22S WCI -16          
WATERLOO         N/A     -2  -8  76 N15       30.25F WCI -22          
$$
 
IAZ064-065-067-068-078-121200-
   EAST CENTRAL IOWA
  
CITY           SKY/WX    TMP DP  RH WIND       PRES   REMARKS
DAVENPORT        N/A     11   4  73 NW20      30.16R WCI  -7          
IOWA CITY        N/A      7  -2  66 NW16G24   30.23R WCI -11          
MT. PLEASANT * CLOUDY     5   0  78 NW16G24   30.20R WCI -14          
MUSCATINE *    MOCLDY    10   3  72 NW17G26   30.21R WCI  -7          
QUAD CITIES      N/A     12   5  73 NW16G25   30.15R WCI  -5          
$$
 
IAZ062-063-075>077-085>089-095>099-121200-
   SOUTHEAST IOWA
  
CITY           SKY/WX    TMP DP  RH WIND       PRES   REMARKS
BURLINGTON     CLOUDY     7   0  73 N18G26    30.16R WCI -12          
FAIRFIELD *    CLOUDY     3  -4  72 NW18G25   30.21S WCI -17          
FORT MADISON * CLOUDY     7   1  78 NW20G25   30.17S WCI -13          
KEOKUK *       CLOUDY     7   1  78 NW17G26   30.17S WCI -12          
OSKALOOSA *      N/A      1  -4  77 N20       30.25S WCI -20          
OTTUMWA        CLOUDY     2  -5  72 NW18      30.24R WCI -19          
WASHINGTON *   CLOUDY     3   0  85 NW20G25   30.23R WCI -18          
$$

ABBREVIATIONS USED IN REMARKS
   TC - TEMPERATURES IN CELSIUS
  WCI - WIND CHILL INDEX
   HX - HEAT INDEX
  VSB - VISIBILITY  
$$